[[{"header":{"parameterUnit":"m.s-1","parameterCategory":1,"la1":30.2991,"la2":30.254,"lo1":-89.0895,"lo2":-89.0444,"dy":0.0017,"dx":0.0017,"nx":28,"ny":28,"refTime":"2025-03-18T21:00:00:Z","depth":0,"parameterNumber":2,"parameterNumberName":"U-component_of_WINDS"},"data":[0,0,0,0,0,0,0,0,0,0,0,0,0,0,0,0,0,0,0,0,0,0,0,0,0,0,0,0,0,0,0,0,0,0,0,0,0,0,0,0,0,0,0,0,0,0,0,0,0,0,0,0,0,0,0,0,0,0,6.0116,6.0117,0,6.0205,6.0206,6.0207,6.0163,6.016,6.0158,6.0156,6.0244,6.0248,6.0253,0,0,0,0,0,0,0,0,0,0,0,0,0,5.9908,5.9912,6.0116,6.0117,6.0118,6.0204,6.0206,6.0207,6.0163,6.016,6.0157,6.0155,6.0242,6.0248,6.0253,0,0,0,0,0,0,0,0,0,0,0,0,0,5.9998,5.9914,6.0116,6.0107,6.0107,6.0204,6.0206,6.0207,6.0164,6.016,6.0157,6.0153,6.0241,6.0247,6.0254,6.0364,0,0,6.0274,6.0277,0,0,0,0,0,0,0,0,5.9993,6.0005,6.0107,6.0108,6.0108,6.0169,6.0165,6.026,6.0164,6.0142,6.0156,6.0152,6.0222,6.023,6.0254,6.0368,6.0372,6.0275,6.0279,6.0282,6.0284,0,0,0,0,0,0,0,5.9987,6.0001,6.0151,6.0109,6.0109,6.0098,6.0107,6.0182,6.02,6.0144,6.0141,6.0152,6.0221,6.0247,6.0255,6.0373,6.0275,6.0281,6.0285,6.0287,6.0586,6.0589,0,0,0,0,0,0,5.9981,5.9996,6.0148,6.0154,6.0041,6.0105,6.0115,6.0153,6.0199,6.0203,6.0155,6.015,6.0238,6.0248,6.0258,6.0392,6.0282,6.0288,6.0292,6.0582,6.0587,6.0591,0,0,0,0,0,0,5.9977,5.9995,6.0144,6.0074,6.0093,6.0112,6.0155,6.0156,6.0183,6.0207,6.021,6.0178,6.0235,6.0249,6.0339,6.0395,6.0291,6.0297,6.0577,6.0583,6.0589,6.066,0,0,0,0,0,0,5.9971,5.9994,6.0036,6.0076,6.0097,6.0224,6.0159,6.0161,6.0195,6.0189,6.023,6.0234,6.0234,6.0329,6.0346,6.0402,6.0302,6.0572,6.058,6.0587,6.0653,6.0668,6.068,0,0,0,0,0,5.9964,6.0051,6.0038,6.0057,6.015,6.0227,6.0239,6.0238,6.0199,6.0242,6.0258,6.0233,6.0386,6.0339,6.0357,6.0416,6.0569,6.0578,6.0586,6.0647,6.0665,6.068,0,0,0,0,0,0,6.0015,6.0056,6.0042,6.0145,6.0183,6.022,6.0273,6.0256,6.0305,6.0298,6.0293,6.0303,6.0397,6.0415,6.0362,6.0527,6.0471,6.0484,6.0511,6.0529,6.0542,6.0535,6.0308,0,0,0,0,0,6.0039,6.0099,6.0131,6.0219,6.0239,6.0253,6.0287,6.0283,6.0322,6.0337,6.036,6.0399,6.0456,6.0493,6.0547,6.0656,6.0665,6.0705,6.0719,6.073,6.0741,6.0802,6.0821,6.0619,6.0619,6.0619,0,0,6.0088,6.0118,6.0156,6.023,6.0259,6.0322,6.0267,6.0335,6.0381,6.0347,6.0434,6.0453,6.0495,6.0596,6.0641,6.0614,6.0799,6.0742,6.075,6.0755,6.0813,6.0832,6.0849,6.0625,6.0624,6.0623,0,0,6.0209,6.0238,6.0315,6.0346,6.0392,6.0401,6.042,6.046,6.0471,6.0559,6.0536,6.0591,6.0688,6.0721,6.0749,6.0887,6.0865,6.0904,6.0976,6.1035,6.1051,6.1065,6.1115,6.1133,6.0915,6.0916,6.0916,0,6.0264,6.0358,6.0356,6.0427,6.0462,6.0436,6.0515,6.0545,6.0605,6.0629,6.0598,6.0723,6.0749,6.0858,6.0892,6.0916,6.0938,6.0899,6.1049,6.1063,6.1076,6.1124,6.1143,6.092,6.092,6.0919,6.0919,0,6.0424,6.0489,6.0546,6.0608,6.0648,6.0722,6.0733,6.0774,6.0767,6.078,6.0871,6.0902,6.0963,6.0989,6.0982,6.1098,6.108,6.1049,6.0994,6.11,6.1145,6.1163,6.0927,6.0925,6.0924,6.0922,0,0,6.0578,6.064,6.0661,6.0689,6.0739,6.079,6.0864,6.0925,6.0961,6.1004,6.1066,6.1152,6.1125,6.1158,6.1155,6.1207,6.1316,6.1171,6.1172,6.1197,6.1447,6.1469,6.149,6.1302,6.1306,6.1309,6.1443,0,6.0703,6.0834,6.0836,6.0956,6.1017,6.0995,6.106,6.1098,6.1112,6.1167,6.1182,6.1243,6.1203,6.1223,6.1274,6.1292,6.1366,6.1282,6.136,6.1363,6.1351,6.1514,6.1537,6.1663,6.1461,6.1464,6.1466,0,6.0867,6.0918,6.1044,6.1088,6.1113,6.1171,6.1229,6.1281,6.1324,6.1331,6.137,6.136,6.1436,6.1379,6.1484,6.1427,6.1459,6.1474,6.1478,6.1485,6.1421,6.1526,6.1703,6.1722,6.1493,6.1491,6.1489,0,6.0968,6.1068,6.1157,6.1182,6.1234,6.1276,6.13,6.134,6.1377,6.1427,6.1452,6.151,6.1541,6.1587,6.1593,6.155,6.1699,6.1642,6.1707,6.1707,6.1739,6.1737,6.1924,6.176,6.176,6.1759,6.1759,0,6.1108,6.1186,6.1204,6.1258,6.1346,6.1349,6.1435,6.1455,6.1492,6.155,6.1534,6.159,6.1594,6.1652,6.1657,6.1744,6.1758,6.1766,6.1767,6.1768,6.1767,6.1789,6.178,6.1764,6.1763,6.1762,6.1761,0,6.1235,6.125,6.1346,6.1389,6.1402,6.1465,6.1502,6.1554,6.1568,6.1643,6.166,6.1682,6.1749,6.176,6.1838,6.1841,6.1946,6.1937,6.1932,6.1931,6.1996,6.199,6.2204,6.2233,6.2049,6.2051,6.2053,0,6.1324,6.1384,6.1435,6.1474,6.15,6.1562,6.1601,6.1607,6.1648,6.1703,6.1749,6.1815,6.1867,6.1975,6.1998,6.2058,6.205,6.2122,6.2059,6.2059,6.2052,6.2049,6.2056,6.2133,6.2135,6.2137,6.2138,0,6.148,6.1485,6.1542,6.1603,6.165,6.1697,6.1742,6.1775,6.1786,6.1833,6.1902,6.1943,6.2024,6.209,6.215,6.2174,6.2159,6.2158,6.2176,6.2178,6.2173,6.2177,6.1965,6.2153,6.2151,6.215,6.2149,6.2149,6.1591,6.1644,6.1689,6.1754,6.1789,6.1832,6.1884,6.1906,6.1964,6.2031,6.2031,6.2106,6.215,6.223,6.2258,6.2318,6.2295,6.2321,6.2328,6.2335,6.2341,6.2164,6.2329,6.2328,6.2328,6.2328,6.2327,0,6.1747,6.1775,6.1835,6.1899,6.1951,6.1933,6.1983,6.2027,6.2094,6.2137,6.219,6.227,6.2334,6.2363,6.2426,6.2469,6.2463,6.2485,6.2482,6.2488,6.2358,6.2336,6.2489,6.2489,6.2488,6.2488,6.2488,6.2488,6.1834,6.1924,6.1935,6.2042,6.207,6.2145,6.2175,6.2215,6.2249,6.234,6.2394,6.2413,6.2451,6.2517,6.2575,6.2582,6.2607,6.2632,6.2636,6.2513,6.2497,6.2481,6.2461,6.2637,6.2637,6.2761,6.2762,6.2763]},{"header":{"parameterUnit":"m.s-1","parameterCategory":1,"la1":30.2991,"la2":30.254,"lo1":-89.0895,"lo2":-89.0444,"dy":0.0017,"dx":0.0017,"nx":28,"ny":28,"refTime":"2025-03-18T21:00:00:Z","depth":0,"parameterNumber":3,"parameterNumberName":"V-component_of_WINDS"},"data":[0,0,0,0,0,0,0,0,0,0,0,0,0,0,0,0,0,0,0,0,0,0,0,0,0,0,0,0,0,0,0,0,0,0,0,0,0,0,0,0,0,0,0,0,0,0,0,0,0,0,0,0,0,0,0,0,0,0,-7.5165,-7.5166,0,-7.5299,-7.5301,-7.5302,-7.5276,-7.5273,-7.5271,-7.5268,-7.5401,-7.5407,-7.5412,0,0,0,0,0,0,0,0,0,0,0,0,0,-7.4882,-7.4887,-7.5165,-7.5167,-7.5168,-7.5299,-7.5301,-7.5303,-7.5276,-7.5273,-7.527,-7.5267,-7.5399,-7.5406,-7.5413,0,0,0,0,0,0,0,0,0,0,0,0,0,-7.5009,-7.4889,-7.5165,-7.5171,-7.5173,-7.5299,-7.5301,-7.5303,-7.5277,-7.5273,-7.5269,-7.5266,-7.5397,-7.5405,-7.5414,-7.5541,0,0,-7.544,-7.5444,0,0,0,0,0,0,0,0,-7.5002,-7.502,-7.5168,-7.5171,-7.5173,-7.5267,-7.525,-7.5383,-7.5278,-7.5237,-7.5268,-7.5264,-7.5359,-7.5371,-7.5404,-7.5547,-7.5552,-7.5441,-7.5446,-7.545,-7.5453,0,0,0,0,0,0,0,-7.4993,-7.5014,-7.5218,-7.517,-7.5173,-7.5166,-7.518,-7.5275,-7.5317,-7.524,-7.5239,-7.5255,-7.536,-7.5395,-7.5407,-7.5554,-7.5441,-7.5449,-7.5454,-7.5457,-7.581,-7.5814,0,0,0,0,0,0,-7.4983,-7.5007,-7.5214,-7.5222,-7.5077,-7.5174,-7.519,-7.524,-7.5316,-7.5324,-7.5258,-7.5253,-7.5382,-7.5396,-7.5411,-7.5566,-7.545,-7.5458,-7.5463,-7.5806,-7.5811,-7.5816,0,0,0,0,0,0,-7.4977,-7.5002,-7.5208,-7.5114,-7.514,-7.5183,-7.524,-7.5245,-7.5281,-7.5329,-7.5336,-7.5287,-7.538,-7.5399,-7.5509,-7.557,-7.5462,-7.547,-7.5801,-7.5808,-7.5814,-7.5875,0,0,0,0,0,0,-7.4969,-7.5,-7.5049,-7.5115,-7.5145,-7.5305,-7.5244,-7.525,-7.5296,-7.5292,-7.5358,-7.5366,-7.5379,-7.5497,-7.5518,-7.558,-7.5477,-7.5796,-7.5804,-7.5812,-7.5868,-7.5883,-7.5896,0,0,0,0,0,-7.4959,-7.5059,-7.5052,-7.5077,-7.5208,-7.5309,-7.5326,-7.534,-7.5301,-7.5351,-7.5383,-7.5364,-7.556,-7.5508,-7.5532,-7.5598,-7.5792,-7.5802,-7.5811,-7.5862,-7.588,-7.5895,0,0,0,0,0,0,-7.4996,-7.5068,-7.506,-7.5185,-7.5242,-7.5304,-7.5367,-7.5358,-7.5425,-7.5417,-7.543,-7.5446,-7.5559,-7.5589,-7.553,-7.5725,-7.5671,-7.5685,-7.5701,-7.5719,-7.5732,-7.5723,-7.5484,0,0,0,0,0,-7.502,-7.5097,-7.5155,-7.526,-7.5289,-7.5323,-7.5368,-7.5374,-7.5432,-7.5455,-7.5495,-7.5551,-7.5625,-7.5674,-7.5745,-7.5873,-7.5887,-7.593,-7.5943,-7.5955,-7.5967,-7.6038,-7.6058,-7.5846,-7.5846,-7.5846,0,0,-7.5067,-7.5116,-7.5164,-7.5269,-7.5313,-7.5393,-7.5343,-7.5429,-7.5488,-7.5468,-7.5575,-7.5607,-7.567,-7.579,-7.5845,-7.5819,-7.6029,-7.5966,-7.5975,-7.5981,-7.605,-7.607,-7.6088,-7.5853,-7.5852,-7.5851,0,0,-7.5195,-7.524,-7.5333,-7.538,-7.5448,-7.5471,-7.5494,-7.5559,-7.5579,-7.5688,-7.5675,-7.5745,-7.5873,-7.5919,-7.5959,-7.6108,-7.6094,-7.6131,-7.6202,-7.6272,-7.6289,-7.6304,-7.6358,-7.6377,-7.6143,-7.6143,-7.6143,0,-7.5246,-7.5366,-7.5382,-7.547,-7.5517,-7.5505,-7.5599,-7.5643,-7.573,-7.5763,-7.5733,-7.5895,-7.5936,-7.6068,-7.6105,-7.6138,-7.6164,-7.6123,-7.6285,-7.6301,-7.6315,-7.6366,-7.6386,-7.6147,-7.6147,-7.6146,-7.6146,0,-7.5425,-7.5509,-7.5576,-7.5664,-7.5718,-7.5809,-7.5838,-7.5891,-7.5893,-7.5919,-7.603,-7.608,-7.6162,-7.6194,-7.6196,-7.6327,-7.6309,-7.6282,-7.6228,-7.6339,-7.6387,-7.6407,-7.6153,-7.6152,-7.615,-7.6149,0,0,-7.5579,-7.5677,-7.5701,-7.5741,-7.5818,-7.5882,-7.5973,-7.6055,-7.6101,-7.6162,-7.6238,-7.6348,-7.6325,-7.6371,-7.6378,-7.6439,-7.6555,-7.6405,-7.6407,-7.6432,-7.6704,-7.6724,-7.6747,-7.6547,-7.6551,-7.6554,-7.6699,0,-7.5714,-7.5876,-7.5894,-7.6037,-7.6116,-7.6107,-7.6186,-7.6241,-7.6268,-7.6338,-7.6367,-7.6445,-7.6408,-7.6436,-7.6496,-7.6529,-7.661,-7.6518,-7.6617,-7.6621,-7.6602,-7.6772,-7.6793,-7.6928,-7.6718,-7.6721,-7.6724,0,-7.5894,-7.5964,-7.6116,-7.6184,-7.6217,-7.6288,-7.6366,-7.6433,-7.6495,-7.6511,-7.6564,-7.6564,-7.6657,-7.6599,-7.6728,-7.6665,-7.6706,-7.6729,-7.6734,-7.6744,-7.6679,-7.6786,-7.6971,-7.6991,-7.6754,-7.6751,-7.6749,0,-7.5992,-7.6123,-7.6232,-7.6267,-7.6348,-7.6399,-7.6434,-7.6494,-7.6543,-7.6611,-7.6643,-7.672,-7.6762,-7.6821,-7.6842,-7.6798,-7.697,-7.6914,-7.6985,-7.6985,-7.7021,-7.7019,-7.7215,-7.7048,-7.7048,-7.7047,-7.7047,0,-7.6141,-7.6235,-7.6277,-7.6344,-7.6449,-7.6469,-7.6572,-7.6605,-7.6659,-7.6731,-7.6728,-7.6796,-7.6819,-7.6891,-7.6908,-7.7012,-7.7031,-7.7046,-7.7049,-7.7046,-7.7045,-7.7074,-7.7065,-7.7053,-7.7051,-7.705,-7.7049,0,-7.6268,-7.63,-7.6418,-7.6487,-7.6506,-7.6581,-7.6639,-7.6704,-7.6731,-7.6823,-7.6846,-7.6888,-7.6973,-7.7,-7.7101,-7.7112,-7.7235,-7.723,-7.7214,-7.7215,-7.7285,-7.7278,-7.7507,-7.7539,-7.735,-7.7352,-7.7354,0,-7.6361,-7.6434,-7.6511,-7.6561,-7.66,-7.6679,-7.673,-7.6753,-7.6806,-7.6884,-7.6939,-7.7024,-7.7093,-7.7229,-7.7268,-7.7346,-7.7342,-7.7417,-7.7354,-7.735,-7.7344,-7.734,-7.7348,-7.7429,-7.7431,-7.7433,-7.7434,0,-7.6524,-7.6538,-7.6612,-7.6693,-7.6755,-7.6819,-7.6881,-7.6922,-7.6953,-7.7013,-7.7101,-7.7155,-7.7261,-7.7345,-7.7425,-7.7461,-7.7453,-7.7454,-7.7475,-7.7473,-7.7461,-7.7469,-7.7247,-7.7448,-7.7447,-7.7446,-7.7445,-7.7444,-7.6638,-7.6703,-7.6768,-7.6852,-7.6901,-7.696,-7.7025,-7.7062,-7.7136,-7.7225,-7.7233,-7.7329,-7.7391,-7.7498,-7.7538,-7.7613,-7.7591,-7.7621,-7.7628,-7.7636,-7.7642,-7.745,-7.7627,-7.7627,-7.7626,-7.7626,-7.7626,0,-7.6801,-7.6844,-7.6921,-7.7009,-7.7075,-7.7065,-7.7133,-7.7189,-7.7274,-7.7333,-7.7402,-7.7504,-7.7586,-7.7633,-7.7715,-7.7766,-7.7764,-7.7787,-7.7783,-7.7792,-7.7656,-7.763,-7.7786,-7.7786,-7.7786,-7.7786,-7.7786,-7.7786,-7.6894,-7.7004,-7.7025,-7.7159,-7.72,-7.7296,-7.7336,-7.739,-7.7438,-7.7553,-7.7622,-7.7653,-7.7708,-7.7794,-7.7869,-7.7881,-7.7911,-7.7936,-7.7945,-7.7817,-7.7801,-7.7785,-7.7761,-7.7942,-7.7943,-7.8075,-7.8076,-7.8077]}]]